| time (UTC) | temp F | wind direction | speed knots | gust knots | rain 1hr in | rain 24hr in | rain mn in | humidity % | barometer mb |
| 20260510103615 | 76 | 306 | 0.0 | 1.7 | 0.00 | 0.00 | 0.00 | 93 | 1009.4 |
| 20260510103101 | 76 | 306 | 0.0 | 1.7 | 0.00 | 0.00 | 0.00 | 93 | 1009.3 |
| 20260510102555 | 76 | 306 | 0.0 | 1.7 | 0.00 | 0.00 | 0.00 | 93 | 1009.4 |
| 20260510102308 | 76 | 306 | 0.9 | 4.3 | 0.00 | 0.00 | 0.00 | 93 | 1009.2 |
| 20260510101550 | 76 | 306 | 0.9 | 4.3 | 0.00 | 0.00 | 0.00 | 93 | 1009.2 |
| 20260510101047 | 76 | 306 | 0.9 | 4.3 | 0.00 | 0.00 | 0.00 | 93 | 1009.1 |
| 20260510100543 | 76 | 306 | 0.0 | 4.3 | 0.00 | 0.00 | 0.00 | 93 | 1009.2 |
| 20260510100044 | 76 | 306 | 0.0 | 2.6 | 0.00 | 0.00 | 0.00 | 92 | 1009.2 |
| 20260510095538 | 76 | 306 | 0.0 | 1.7 | 0.00 | 0.00 | 0.00 | 92 | 1009.2 |
| 20260510095030 | 76 | 306 | 0.0 | 1.7 | 0.00 | 0.00 | 0.00 | 92 | 1009.3 |
| 20260510094528 | 76 | 306 | 0.0 | 0.9 | 0.00 | 0.00 | 0.00 | 92 | 1009.3 |
| 20260510094028 | 76 | 306 | 0.0 | 0.9 | 0.00 | 0.00 | 0.00 | 92 | 1009.4 |
| 20260510093526 | 76 | 306 | 0.0 | 1.7 | 0.00 | 0.00 | 0.00 | 92 | 1009.4 |
| 20260510093009 | 76 | 306 | 0.0 | 1.7 | 0.00 | 0.00 | 0.00 | 92 | 1009.4 |
| 20260510092503 | 76 | 306 | 0.0 | 3.5 | 0.00 | 0.00 | 0.00 | 92 | 1009.5 |
| 20260510092214 | 76 | 306 | 0.9 | 4.3 | 0.00 | 0.00 | 0.00 | 92 | 1009.6 |
| 20260510091701 | 76 | 306 | 0.9 | 4.3 | 0.00 | 0.00 | 0.00 | 93 | 1009.5 |
| 20260510090936 | 76 | 306 | 0.9 | 3.5 | 0.00 | 0.00 | 0.00 | 93 | 1009.5 |
| 20260510090655 | 76 | 306 | 0.9 | 3.5 | 0.00 | 0.00 | 0.00 | 93 | 1009.5 |
| 20260510085932 | 76 | 306 | 0.0 | 1.7 | 0.00 | 0.00 | 0.00 | 93 | 1009.5 |
| 20260510085433 | 76 | 306 | 0.0 | 2.6 | 0.00 | 0.00 | 0.00 | 93 | 1009.4 |
| 20260510084926 | 76 | 306 | 0.9 | 3.5 | 0.00 | 0.00 | 0.00 | 93 | 1009.4 |
| 20260510084425 | 76 | 306 | 0.9 | 3.5 | 0.00 | 0.00 | 0.00 | 93 | 1009.3 |
| 20260510083900 | 76 | 306 | 0.9 | 6.1 | 0.00 | 0.00 | 0.00 | 93 | 1009.2 |
| 20260510083354 | 76 | 306 | 0.9 | 6.1 | 0.00 | 0.00 | 0.00 | 93 | 1009.2 |
| 20260510083109 | 76 | 306 | 0.9 | 3.5 | 0.00 | 0.00 | 0.00 | 93 | 1009.2 |
| 20260510082341 | 76 | 306 | 0.9 | 6.1 | 0.00 | 0.00 | 0.00 | 93 | 1009.1 |
| 20260510081822 | 76 | 313 | 0.0 | 6.1 | 0.00 | 0.00 | 0.00 | 93 | 1009.2 |
| 20260510081541 | 76 | 318 | 0.0 | 1.7 | 0.00 | 0.00 | 0.00 | 93 | 1009.2 |
| 20260510080807 | 76 | 318 | 0.0 | 1.7 | 0.00 | 0.00 | 0.00 | 92 | 1009.1 |
| 20260510080308 | 76 | 318 | 0.0 | 1.7 | 0.00 | 0.00 | 0.00 | 93 | 1009.0 |
| 20260510080031 | 76 | 318 | 0.0 | 1.7 | 0.00 | 0.00 | 0.00 | 92 | 1009.1 |
| 20260510075256 | 76 | 318 | 0.0 | 0.9 | 0.00 | 0.00 | 0.00 | 92 | 1009.1 |
| 20260510074749 | 76 | 318 | 0.0 | 2.6 | 0.00 | 0.00 | 0.00 | 92 | 1009.0 |
| 20260510074248 | 76 | 318 | 0.0 | 2.6 | 0.00 | 0.00 | 0.00 | 92 | 1009.1 |
| 20260510073749 | 76 | 318 | 0.0 | 1.7 | 0.00 | 0.00 | 0.00 | 92 | 1009.1 |
| 20260510073245 | 76 | 318 | 0.0 | 1.7 | 0.00 | 0.00 | 0.00 | 92 | 1009.1 |
| 20260510072739 | 76 | 318 | 0.0 | 1.7 | 0.00 | 0.00 | 0.00 | 92 | 1009.1 |
| 20260510072216 | 76 | 318 | 0.0 | 2.6 | 0.00 | 0.00 | 0.00 | 92 | 1009.2 |
| 20260510071715 | 76 | 318 | 0.0 | 2.6 | 0.00 | 0.00 | 0.00 | 92 | 1009.1 |
| 20260510071149 | 76 | 318 | 0.9 | 3.5 | 0.00 | 0.00 | 0.00 | 91 | 1009.1 |
| 20260510070633 | 76 | 318 | 0.9 | 3.5 | 0.00 | 0.00 | 0.00 | 91 | 1009.2 |
| 20260510070357 | 76 | 318 | 0.9 | 3.5 | 0.00 | 0.00 | 0.00 | 91 | 1009.2 |
| 20260510065622 | 76 | 318 | 0.9 | 3.5 | 0.00 | 0.00 | 0.00 | 91 | 1009.3 |
| 20260510065116 | 76 | 318 | 0.9 | 4.3 | 0.00 | 0.00 | 0.00 | 91 | 1009.3 |
| 20260510064616 | 76 | 318 | 0.9 | 4.3 | 0.00 | 0.00 | 0.00 | 91 | 1009.4 |
| 20260510064116 | 76 | 318 | 0.9 | 3.5 | 0.00 | 0.00 | 0.00 | 91 | 1009.4 |
| 20260510063615 | 76 | 318 | 0.9 | 3.5 | 0.00 | 0.00 | 0.00 | 91 | 1009.3 |
| 20260510063109 | 76 | 318 | 0.9 | 3.5 | 0.00 | 0.00 | 0.00 | 91 | 1009.4 |
| 20260510062605 | 76 | 318 | 0.9 | 4.3 | 0.00 | 0.00 | 0.00 | 91 | 1009.4 |
| 20260510062106 | 77 | 318 | 0.9 | 4.3 | 0.00 | 0.00 | 0.00 | 91 | 1009.4 |
| 20260510061551 | 77 | 318 | 0.9 | 3.5 | 0.00 | 0.00 | 0.00 | 91 | 1009.4 |
| 20260510061044 | 77 | 318 | 0.9 | 4.3 | 0.00 | 0.00 | 0.00 | 91 | 1009.4 |
| 20260510061030 | 77 | 318 | 0.9 | 4.3 | 0.00 | 0.00 | 0.00 | 91 | 1009.4 |
| 20260510060033 | 77 | 318 | 0.9 | 4.3 | 0.00 | 0.00 | 0.00 | 91 | 1009.5 |
| 20260510055531 | 77 | 318 | 0.9 | 5.2 | 0.00 | 0.00 | 0.00 | 91 | 1009.5 |
| 20260510055021 | 77 | 319 | 0.9 | 5.2 | 0.00 | 0.00 | 0.00 | 91 | 1009.7 |
| 20260510054515 | 77 | 319 | 0.9 | 5.2 | 0.00 | 0.00 | 0.00 | 91 | 1009.7 |
| 20260510054009 | 77 | 319 | 0.9 | 4.3 | 0.00 | 0.00 | 0.00 | 91 | 1009.8 |
| 20260510053503 | 77 | 319 | 0.9 | 4.3 | 0.00 | 0.00 | 0.00 | 90 | 1009.7 |
| 20260510052957 | 77 | 319 | 0.9 | 3.5 | 0.00 | 0.00 | 0.00 | 90 | 1009.8 |
| 20260510052451 | 77 | 319 | 0.9 | 3.5 | 0.00 | 0.00 | 0.00 | 90 | 1009.7 |
| 20260510051943 | 78 | 319 | 0.9 | 3.5 | 0.00 | 0.00 | 0.00 | 90 | 1009.8 |
| 20260510051437 | 78 | 319 | 0.9 | 3.5 | 0.00 | 0.00 | 0.00 | 90 | 1009.9 |
| 20260510050931 | 78 | 319 | 0.9 | 3.5 | 0.00 | 0.00 | 0.00 | 90 | 1010.0 |
| 20260510050416 | 78 | 319 | 0.9 | 3.5 | 0.00 | 0.00 | 0.00 | 90 | 1010.1 |
| 20260510045911 | 78 | 319 | 0.9 | 3.5 | 0.00 | 0.00 | 0.00 | 90 | 1010.1 |
| 20260510045412 | 78 | 319 | 0.9 | 2.6 | 0.00 | 0.00 | 0.00 | 89 | 1010.2 |
| 20260510044857 | 78 | 319 | 0.9 | 4.3 | 0.00 | 0.00 | 0.00 | 89 | 1010.2 |
| 20260510044351 | 78 | 319 | 0.9 | 4.3 | 0.00 | 0.00 | 0.00 | 89 | 1010.2 |
| 20260510043846 | 78 | 319 | 0.0 | 3.5 | 0.00 | 0.00 | 0.00 | 89 | 1010.3 |
| 20260510043346 | 78 | 319 | 0.9 | 2.6 | 0.00 | 0.00 | 0.00 | 88 | 1010.3 |
| 20260510042833 | 78 | 319 | 0.9 | 3.5 | 0.00 | 0.00 | 0.00 | 88 | 1010.1 |
| 20260510042332 | 78 | 319 | 0.9 | 4.3 | 0.00 | 0.00 | 0.00 | 88 | 1010.1 |
| 20260510041821 | 79 | 319 | 0.9 | 4.3 | 0.00 | 0.00 | 0.00 | 88 | 1010.2 |
| 20260510041318 | 79 | 319 | 0.9 | 3.5 | 0.00 | 0.00 | 0.00 | 87 | 1010.2 |
| 20260510040812 | 79 | 319 | 0.0 | 3.5 | 0.00 | 0.00 | 0.00 | 87 | 1010.0 |
| 20260510040312 | 79 | 319 | 0.9 | 3.5 | 0.00 | 0.00 | 0.00 | 86 | 1010.0 |
| 20260510040021 | 79 | 319 | 0.9 | 3.5 | 0.00 | 0.00 | 0.00 | 86 | 1010.1 |
| 20260510035251 | 79 | 319 | 0.9 | 2.6 | 0.00 | 0.00 | 0.00 | 86 | 1010.1 |
| 20260510035024 | 79 | 319 | 0.9 | 4.3 | 0.00 | 0.00 | 0.00 | 85 | 1010.1 |
| 20260510034252 | 80 | 319 | 1.7 | 6.1 | 0.00 | 0.00 | 0.00 | 85 | 1010.0 |
| 20260510033733 | 80 | 319 | 0.9 | 6.1 | 0.00 | 0.00 | 0.00 | 85 | 1010.0 |
| 20260510033227 | 80 | 320 | 0.9 | 4.3 | 0.00 | 0.00 | 0.00 | 84 | 1010.0 |
| 20260510032713 | 80 | 320 | 0.9 | 4.3 | 0.00 | 0.00 | 0.00 | 83 | 1010.1 |
| 20260510032213 | 80 | 320 | 0.9 | 4.3 | 0.00 | 0.00 | 0.00 | 83 | 1010.2 |
| 20260510031713 | 80 | 313 | 0.9 | 3.5 | 0.00 | 0.00 | 0.00 | 81 | 1010.2 |
| 20260510031210 | 80 | 313 | 0.9 | 3.5 | 0.00 | 0.00 | 0.00 | 81 | 1010.2 |
| 20260510030710 | 80 | 313 | 0.9 | 3.5 | 0.00 | 0.00 | 0.00 | 81 | 1010.1 |
| 20260510030209 | 80 | 313 | 0.9 | 3.5 | 0.00 | 0.00 | 0.00 | 81 | 1009.9 |
| 20260510025707 | 80 | 313 | 0.9 | 2.6 | 0.00 | 0.00 | 0.00 | 80 | 1009.9 |
| 20260510025206 | 80 | 313 | 0.9 | 2.6 | 0.00 | 0.00 | 0.00 | 79 | 1009.8 |
| 20260510024708 | 80 | 313 | 0.0 | 4.3 | 0.00 | 0.00 | 0.00 | 78 | 1009.7 |
| 20260510024206 | 80 | 313 | 0.9 | 4.3 | 0.00 | 0.00 | 0.00 | 78 | 1009.4 |
| 20260510023659 | 80 | 313 | 0.9 | 2.6 | 0.00 | 0.00 | 0.00 | 77 | 1009.2 |
| 20260510023159 | 80 | 314 | 1.7 | 0.9 | 0.00 | 0.00 | 0.00 | 76 | 1009.0 |
| 20260510022653 | 81 | 314 | 0.9 | 3.5 | 0.00 | 0.00 | 0.00 | 76 | 1008.8 |
| 20260510022143 | 81 | 314 | 0.9 | 3.5 | 0.00 | 0.00 | 0.00 | 75 | 1008.8 |
| 20260510021633 | 81 | 313 | 0.9 | 3.5 | 0.00 | 0.00 | 0.00 | 74 | 1008.6 |
| 20260510021134 | 81 | 313 | 0.9 | 4.3 | 0.00 | 0.00 | 0.00 | 74 | 1008.5 |
| 20260510020613 | 81 | 313 | 0.9 | 4.3 | 0.00 | 0.00 | 0.00 | 74 | 1008.4 |
| 20260510020106 | 82 | 313 | 0.9 | 3.5 | 0.00 | 0.00 | 0.00 | 73 | 1008.3 |
| 20260510015601 | 82 | 313 | 0.9 | 5.2 | 0.00 | 0.00 | 0.00 | 72 | 1008.1 |
| 20260510015319 | 82 | 313 | 1.7 | 5.2 | 0.00 | 0.00 | 0.00 | 71 | 1008.1 |
| 20260510014549 | 82 | 314 | 0.9 | 4.3 | 0.00 | 0.00 | 0.00 | 71 | 1007.7 |
| 20260510014049 | 82 | 315 | 0.9 | 4.3 | 0.00 | 0.00 | 0.00 | 70 | 1007.5 |
| 20260510013537 | 83 | 315 | 0.9 | 4.3 | 0.00 | 0.00 | 0.00 | 69 | 1007.6 |
| 20260510013033 | 83 | 315 | 0.9 | 3.5 | 0.00 | 0.00 | 0.00 | 68 | 1007.4 |
| 20260510012522 | 83 | 315 | 0.9 | 3.5 | 0.00 | 0.00 | 0.00 | 68 | 1007.4 |
| 20260510012016 | 83 | 315 | 1.7 | 5.2 | 0.00 | 0.00 | 0.00 | 67 | 1007.3 |
| 20260510011507 | 84 | 315 | 1.7 | 5.2 | 0.00 | 0.00 | 0.00 | 66 | 1007.2 |
| 20260510011002 | 84 | 315 | 1.7 | 5.2 | 0.00 | 0.00 | 0.00 | 65 | 1007.1 |
| 20260510010504 | 84 | 325 | 1.7 | 5.2 | 0.00 | 0.00 | 0.00 | 65 | 1006.8 |
| 20260510005956 | 85 | 325 | 1.7 | 5.2 | 0.00 | 0.00 | 0.00 | 64 | 1006.4 |
| 20260510005456 | 85 | 325 | 1.7 | 5.2 | 0.00 | 0.00 | 0.00 | 63 | 1006.7 |
| 20260510004957 | 85 | 328 | 1.7 | 6.1 | 0.00 | 0.00 | 0.00 | 63 | 1007.0 |
| 20260510004946 | 86 | 329 | 0.9 | 6.1 | 0.00 | 0.00 | 0.00 | 64 | 1006.9 |
| 20260510003952 | 86 | 333 | 0.9 | 4.3 | 0.00 | 0.00 | 0.00 | 64 | 1006.9 |
| 20260510003451 | 86 | 333 | 0.9 | 3.5 | 0.00 | 0.00 | 0.00 | 65 | 1006.9 |
| 20260510002950 | 87 | 333 | 0.9 | 3.5 | 0.00 | 0.00 | 0.00 | 65 | 1006.9 |
| 20260510002444 | 87 | 333 | 0.0 | 2.6 | 0.00 | 0.00 | 0.00 | 66 | 1006.8 |
| 20260510001939 | 87 | 333 | 0.9 | 4.3 | 0.00 | 0.00 | 0.00 | 66 | 1006.7 |
| 20260510001441 | 87 | 333 | 0.9 | 4.3 | 0.00 | 0.00 | 0.00 | 66 | 1006.5 |
| 20260510000922 | 88 | 333 | 0.9 | 4.3 | 0.00 | 0.00 | 0.00 | 66 | 1006.7 |
| 20260510000900 | 88 | 333 | 0.9 | 5.2 | 0.00 | 0.00 | 0.00 | 65 | 1006.8 |
| 20260509235911 | 89 | 333 | 0.9 | 5.2 | 0.00 | 0.00 | 0.00 | 65 | 1006.4 |
| 20260509235400 | 89 | 336 | 0.0 | 0.9 | 0.00 | 0.00 | 0.00 | 65 | 1006.3 |
| 20260509234901 | 89 | 336 | 0.0 | 1.7 | 0.00 | 0.00 | 0.00 | 64 | 1006.3 |
| 20260509234614 | 89 | 336 | 0.0 | 1.7 | 0.00 | 0.00 | 0.00 | 64 | 1006.3 |
| 20260509233844 | 90 | 336 | 0.0 | 1.7 | 0.00 | 0.00 | 0.00 | 63 | 1006.2 |
| 20260509233307 | 90 | 336 | 0.0 | 2.6 | 0.00 | 0.00 | 0.00 | 62 | 1006.4 |
| 20260509232741 | 91 | 336 | 0.0 | 2.6 | 0.00 | 0.00 | 0.00 | 62 | 1006.4 |
| 20260509232457 | 91 | 336 | 0.0 | 2.6 | 0.00 | 0.00 | 0.00 | 61 | 1006.3 |
| 20260509231730 | 91 | 336 | 0.0 | 2.6 | 0.00 | 0.00 | 0.00 | 61 | 1006.4 |
| 20260509231225 | 91 | 336 | 0.9 | 2.6 | 0.00 | 0.00 | 0.00 | 61 | 1006.4 |
| 20260509230938 | 92 | 336 | 0.9 | 1.7 | 0.00 | 0.00 | 0.00 | 61 | 1006.3 |
| 20260509230212 | 92 | 336 | 0.0 | 1.7 | 0.00 | 0.00 | 0.00 | 61 | 1006.3 |
| 20260509225705 | 92 | 336 | 0.0 | 2.6 | 0.00 | 0.00 | 0.00 | 62 | 1006.3 |
| 20260509225159 | 91 | 336 | 0.9 | 2.6 | 0.00 | 0.00 | 0.00 | 61 | 1006.3 |
| 20260509224654 | 91 | 336 | 0.9 | 2.6 | 0.00 | 0.00 | 0.00 | 61 | 1006.2 |
| 20260509224418 | 92 | 336 | 0.0 | 1.7 | 0.00 | 0.00 | 0.00 | 60 | 1006.1 |
| 20260509223653 | 92 | 336 | 0.9 | 2.6 | 0.00 | 0.00 | 0.00 | 59 | 1006.1 |
| 20260509223409 | 91 | 336 | 0.9 | 3.5 | 0.00 | 0.00 | 0.00 | 58 | 1006.1 |
| 20260509222648 | 92 | 336 | 0.9 | 3.5 | 0.00 | 0.00 | 0.00 | 59 | 1006.1 |
| 20260509222147 | 92 | 336 | 0.0 | 1.7 | 0.00 | 0.00 | 0.00 | 59 | 1006.2 |
| 20260509221856 | 92 | 336 | 0.9 | 4.3 | 0.00 | 0.00 | 0.00 | 59 | 1006.1 |
| 20260509221111 | 92 | 336 | 0.9 | 4.3 | 0.00 | 0.00 | 0.00 | 59 | 1006.0 |
| 20260509220823 | 93 | 336 | 0.9 | 2.6 | 0.00 | 0.00 | 0.00 | 60 | 1006.0 |
| 20260509220319 | 93 | 336 | 0.0 | 2.6 | 0.00 | 0.00 | 0.00 | 60 | 1006.1 |
| 20260509215553 | 92 | 336 | 0.0 | 2.6 | 0.00 | 0.00 | 0.00 | 60 | 1006.1 |
| 20260509215310 | 92 | 336 | 0.9 | 2.6 | 0.00 | 0.00 | 0.00 | 62 | 1006.1 |
| 20260509214541 | 92 | 336 | 0.9 | 2.6 | 0.00 | 0.00 | 0.00 | 59 | 1006.1 |
| 20260509214035 | 92 | 336 | 0.9 | 2.6 | 0.00 | 0.00 | 0.00 | 60 | 1006.1 |
| 20260509213529 | 92 | 336 | 0.9 | 3.5 | 0.00 | 0.00 | 0.00 | 59 | 1006.0 |
| 20260509213030 | 92 | 336 | 0.9 | 3.5 | 0.00 | 0.00 | 0.00 | 59 | 1006.0 |
| 20260509212525 | 93 | 336 | 0.9 | 2.6 | 0.00 | 0.00 | 0.00 | 59 | 1006.0 |
| 20260509212011 | 94 | 336 | 0.9 | 2.6 | 0.00 | 0.00 | 0.00 | 58 | 1006.0 |
| 20260509211501 | 95 | 336 | 0.9 | 2.6 | 0.00 | 0.00 | 0.00 | 61 | 1006.0 |
| 20260509210956 | 94 | 336 | 0.0 | 2.6 | 0.00 | 0.00 | 0.00 | 61 | 1006.0 |
| 20260509210451 | 94 | 336 | 0.0 | 1.7 | 0.00 | 0.00 | 0.00 | 59 | 1006.2 |
| 20260509205943 | 94 | 336 | 0.0 | 3.5 | 0.00 | 0.00 | 0.00 | 60 | 1006.2 |
| 20260509205437 | 93 | 336 | 0.9 | 3.5 | 0.00 | 0.00 | 0.00 | 60 | 1006.2 |
| 20260509204931 | 93 | 336 | 0.0 | 2.6 | 0.00 | 0.00 | 0.00 | 62 | 1006.3 |
| 20260509204648 | 92 | 336 | 0.9 | 3.5 | 0.00 | 0.00 | 0.00 | 62 | 1006.4 |
| 20260509204358 | 92 | 336 | 0.9 | 3.5 | 0.00 | 0.00 | 0.00 | 61 | 1006.4 |
| 20260509203413 | 92 | 336 | 0.0 | 2.6 | 0.00 | 0.00 | 0.00 | 62 | 1006.5 |
| 20260509202911 | 92 | 336 | 0.0 | 1.7 | 0.00 | 0.00 | 0.00 | 62 | 1006.5 |
| 20260509202638 | 92 | 336 | 0.9 | 7.0 | 0.00 | 0.00 | 0.00 | 65 | 1006.6 |
| 20260509202128 | 91 | 336 | 0.9 | 7.0 | 0.00 | 0.00 | 0.00 | 65 | 1006.6 |
| 20260509201408 | 91 | 9 | 0.0 | 2.6 | 0.00 | 0.00 | 0.00 | 62 | 1006.6 |
| 20260509200858 | 91 | 9 | 0.0 | 2.6 | 0.00 | 0.00 | 0.00 | 62 | 1006.7 |
| 20260509200347 | 92 | 9 | 0.0 | 2.6 | 0.00 | 0.00 | 0.00 | 63 | 1006.7 |
| 20260509195846 | 92 | 9 | 0.9 | 2.6 | 0.00 | 0.00 | 0.00 | 64 | 1006.9 |
| 20260509195600 | 92 | 9 | 0.0 | 2.6 | 0.00 | 0.00 | 0.00 | 63 | 1006.9 |
| 20260509195103 | 92 | 9 | 0.0 | 2.6 | 0.00 | 0.00 | 0.00 | 66 | 1006.9 |
| 20260509194340 | 91 | 9 | 0.0 | 1.7 | 0.00 | 0.00 | 0.00 | 67 | 1007.0 |
| 20260509193812 | 91 | 9 | 0.0 | 1.7 | 0.00 | 0.00 | 0.00 | 68 | 1007.1 |
| 20260509193301 | 91 | 9 | 0.9 | 3.5 | 0.00 | 0.00 | 0.00 | 67 | 1007.1 |
| 20260509192755 | 90 | 9 | 0.9 | 3.5 | 0.00 | 0.00 | 0.00 | 66 | 1007.1 |
| 20260509192251 | 90 | 9 | 0.0 | 3.5 | 0.00 | 0.00 | 0.00 | 69 | 1007.1 |
| 20260509191751 | 90 | 9 | 0.0 | 1.7 | 0.00 | 0.00 | 0.00 | 68 | 1007.0 |
| 20260509191248 | 89 | 9 | 0.0 | 1.7 | 0.00 | 0.00 | 0.00 | 67 | 1007.0 |
| 20260509190742 | 89 | 9 | 0.0 | 1.7 | 0.00 | 0.00 | 0.00 | 69 | 1007.0 |
| 20260509190235 | 89 | 9 | 0.0 | 1.7 | 0.00 | 0.00 | 0.00 | 70 | 1007.0 |
| 20260509185736 | 88 | 9 | 0.0 | 1.7 | 0.00 | 0.00 | 0.00 | 69 | 1007.0 |
| 20260509185221 | 88 | 9 | 0.0 | 1.7 | 0.00 | 0.00 | 0.00 | 68 | 1007.0 |
| 20260509184707 | 88 | 9 | 0.0 | 1.7 | 0.00 | 0.00 | 0.00 | 68 | 1007.2 |
| 20260509184203 | 88 | 9 | 0.0 | 2.6 | 0.00 | 0.00 | 0.00 | 69 | 1007.3 |
| 20260509183639 | 88 | 9 | 0.0 | 1.7 | 0.00 | 0.00 | 0.00 | 72 | 1007.3 |
| 20260509183140 | 88 | 9 | 0.9 | 2.6 | 0.00 | 0.00 | 0.00 | 69 | 1007.3 |
| 20260509182639 | 88 | 9 | 0.0 | 2.6 | 0.00 | 0.00 | 0.00 | 71 | 1007.4 |
| 20260509182132 | 88 | 9 | 0.0 | 2.6 | 0.00 | 0.00 | 0.00 | 71 | 1007.5 |
| 20260509181630 | 88 | 9 | 0.0 | 3.5 | 0.00 | 0.00 | 0.00 | 75 | 1007.6 |
| 20260509181132 | 87 | 9 | 0.9 | 3.5 | 0.00 | 0.00 | 0.00 | 76 | 1007.8 |
| 20260509180615 | 87 | 9 | 0.0 | 2.6 | 0.00 | 0.00 | 0.00 | 77 | 1007.9 |
| 20260509180109 | 86 | 9 | 0.0 | 2.6 | 0.00 | 0.00 | 0.00 | 74 | 1008.0 |
| 20260509175825 | 86 | 9 | 0.0 | 1.7 | 0.00 | 0.00 | 0.00 | 77 | 1008.1 |
| 20260509175057 | 86 | 9 | 0.0 | 2.6 | 0.00 | 0.00 | 0.00 | 77 | 1008.3 |
| 20260509174819 | 85 | 9 | 0.0 | 2.6 | 0.00 | 0.00 | 0.00 | 77 | 1008.4 |
| 20260509174254 | 85 | 9 | 0.0 | 2.6 | 0.00 | 0.00 | 0.00 | 79 | 1008.5 |
| 20260509173752 | 85 | 9 | 0.9 | 4.3 | 0.00 | 0.00 | 0.00 | 81 | 1008.7 |
| 20260509173016 | 84 | 9 | 0.0 | 4.3 | 0.00 | 0.00 | 0.00 | 82 | 1008.8 |
| 20260509172514 | 83 | 9 | 0.0 | 1.7 | 0.00 | 0.00 | 0.00 | 82 | 1008.8 |
| 20260509172009 | 83 | 9 | 0.0 | 3.5 | 0.00 | 0.00 | 0.00 | 82 | 1008.8 |
| 20260509171456 | 82 | 9 | 0.9 | 3.5 | 0.00 | 0.00 | 0.00 | 81 | 1008.8 |
| 20260509170955 | 82 | 9 | 0.9 | 2.6 | 0.00 | 0.00 | 0.00 | 82 | 1008.8 |
| 20260509170454 | 82 | 9 | 0.0 | 2.6 | 0.00 | 0.00 | 0.00 | 83 | 1008.9 |
| 20260509165955 | 82 | 9 | 0.9 | 2.6 | 0.00 | 0.00 | 0.00 | 84 | 1009.0 |
| 20260509165456 | 82 | 9 | 0.9 | 2.6 | 0.00 | 0.00 | 0.00 | 84 | 1009.0 |
| 20260509164952 | 82 | 9 | 0.9 | 2.6 | 0.00 | 0.00 | 0.00 | 85 | 1009.0 |
| 20260509164452 | 82 | 9 | 0.9 | 2.6 | 0.00 | 0.00 | 0.00 | 86 | 1009.1 |
| 20260509163951 | 82 | 9 | 0.9 | 2.6 | 0.00 | 0.00 | 0.00 | 85 | 1009.0 |
| 20260509163452 | 82 | 9 | 0.0 | 2.6 | 0.00 | 0.00 | 0.00 | 86 | 1009.1 |
| 20260509163206 | 82 | 9 | 0.0 | 0.9 | 0.00 | 0.00 | 0.00 | 88 | 1009.0 |
| 20260509162927 | 82 | 9 | 0.0 | 1.7 | 0.00 | 0.00 | 0.00 | 88 | 1008.9 |
| 20260509161907 | 82 | 9 | 0.0 | 1.7 | 0.00 | 0.00 | 0.00 | 88 | 1008.8 |
| 20260509161401 | 82 | 9 | 0.0 | 0.9 | 0.00 | 0.00 | 0.00 | 89 | 1008.7 |
| 20260509161124 | 81 | 9 | 0.0 | 0.9 | 0.00 | 0.00 | 0.00 | 89 | 1008.8 |
| 20260509160337 | 81 | 9 | 0.0 | 0.9 | 0.00 | 0.00 | 0.00 | 91 | 1008.8 |
| 20260509155828 | 81 | 9 | 0.0 | 1.7 | 0.00 | 0.00 | 0.00 | 90 | 1008.7 |
| 20260509155314 | 81 | 9 | 0.0 | 1.7 | 0.00 | 0.00 | 0.00 | 90 | 1008.7 |
| 20260509154806 | 80 | 9 | 0.0 | 0.9 | 0.00 | 0.00 | 0.00 | 91 | 1008.8 |
| 20260509154252 | 80 | 9 | 0.0 | 1.7 | 0.00 | 0.00 | 0.00 | 91 | 1008.7 |
| 20260509153751 | 80 | 9 | 0.0 | 1.7 | 0.00 | 0.00 | 0.00 | 91 | 1008.7 |
| 20260509153247 | 80 | 9 | 0.0 | 0.9 | 0.00 | 0.00 | 0.00 | 92 | 1008.7 |
| 20260509152720 | 80 | 9 | 0.0 | 0.9 | 0.00 | 0.00 | 0.00 | 93 | 1008.7 |
| 20260509152156 | 79 | 9 | 0.0 | 1.7 | 0.00 | 0.00 | 0.00 | 93 | 1008.5 |
| 20260509151654 | 79 | 9 | 0.0 | 1.7 | 0.00 | 0.00 | 0.00 | 93 | 1008.3 |
| 20260509151152 | 79 | 9 | 0.0 | 1.7 | 0.00 | 0.00 | 0.00 | 93 | 1008.3 |
| 20260509150632 | 78 | 9 | 0.0 | 2.6 | 0.00 | 0.00 | 0.00 | 93 | 1008.3 |
| 20260509150123 | 78 | 9 | 0.0 | 2.6 | 0.00 | 0.00 | 0.00 | 93 | 1008.4 |
| 20260509145619 | 78 | 9 | 0.0 | 3.5 | 0.00 | 0.00 | 0.00 | 93 | 1008.5 |
| 20260509145111 | 78 | 9 | 0.0 | 3.5 | 0.00 | 0.00 | 0.00 | 93 | 1008.5 |
| 20260509144611 | 78 | 9 | 0.0 | 1.7 | 0.00 | 0.00 | 0.00 | 93 | 1008.6 |
| 20260509144328 | 78 | 9 | 0.0 | 1.7 | 0.00 | 0.00 | 0.00 | 93 | 1008.5 |
| 20260509143600 | 78 | 9 | 0.0 | 1.7 | 0.00 | 0.00 | 0.00 | 94 | 1008.4 |
| 20260509143409 | 78 | 9 | 0.0 | 1.7 | 0.00 | 0.00 | 0.00 | 94 | 1008.2 |
| 20260509143310 | 78 | 9 | 0.0 | 2.6 | 0.00 | 0.00 | 0.00 | 94 | 1008.3 |
| 20260509142052 | 78 | 9 | 0.0 | 2.6 | 0.00 | 0.00 | 0.00 | 94 | 1008.1 |
| 20260509141726 | 78 | 9 | 0.0 | 1.7 | 0.00 | 0.00 | 0.00 | 94 | 1008.2 |
| 20260509141610 | 78 | 9 | 0.0 | 1.7 | 0.00 | 0.00 | 0.00 | 94 | 1008.1 |
| 20260509140500 | 78 | 9 | 0.0 | 0.9 | 0.00 | 0.00 | 0.00 | 95 | 1008.2 |
| 20260509140200 | 77 | 9 | 0.0 | 0.0 | 0.00 | 0.00 | 0.00 | 95 | 1008.1 |
| 20260509140048 | 78 | 9 | 0.0 | 0.0 | 0.00 | 0.00 | 0.00 | 95 | 1008.3 |
| 20260509134947 | 77 | 9 | 0.0 | 0.0 | 0.00 | 0.00 | 0.00 | 95 | 1008.4 |
| 20260509134442 | 77 | 9 | 0.0 | 0.9 | 0.00 | 0.00 | 0.00 | 95 | 1008.5 |
| 20260509133941 | 77 | 9 | 0.0 | 3.5 | 0.00 | 0.00 | 0.00 | 95 | 1008.6 |
| 20260509133428 | 77 | 9 | 0.9 | 3.5 | 0.00 | 0.00 | 0.00 | 95 | 1008.8 |
| 20260509133139 | 77 | 9 | 0.9 | 3.5 | 0.00 | 0.00 | 0.00 | 95 | 1009.1 |
| 20260509132420 | 77 | 9 | 0.0 | 0.9 | 0.00 | 0.00 | 0.00 | 95 | 1009.1 |
| 20260509131853 | 77 | 9 | 0.0 | 2.6 | 0.00 | 0.00 | 0.00 | 95 | 1009.1 |
| 20260509131350 | 77 | 9 | 0.0 | 2.6 | 0.00 | 0.00 | 0.00 | 95 | 1008.7 |
| 20260509130851 | 77 | 9 | 0.9 | 2.6 | 0.00 | 0.00 | 0.00 | 95 | 1008.6 |
| 20260509130348 | 77 | 9 | 0.9 | 2.6 | 0.00 | 0.00 | 0.00 | 95 | 1008.7 |
| 20260509130110 | 77 | 9 | 0.0 | 2.6 | 0.00 | 0.00 | 0.00 | 95 | 1008.9 |
| 20260509125350 | 77 | 9 | 0.0 | 0.9 | 0.00 | 0.00 | 0.00 | 95 | 1008.9 |
| 20260509124848 | 76 | 9 | 0.0 | 0.0 | 0.00 | 0.00 | 0.00 | 95 | 1008.9 |
| 20260509124348 | 76 | 9 | 0.0 | 0.0 | 0.00 | 0.00 | 0.00 | 95 | 1008.8 |
| 20260509123848 | 76 | 9 | 0.0 | 0.0 | 0.00 | 0.00 | 0.00 | 95 | 1008.9 |
| 20260509123341 | 76 | 9 | 0.0 | 0.0 | 0.00 | 0.00 | 0.00 | 95 | 1008.9 |
| 20260509122753 | 76 | 9 | 0.0 | 0.0 | 0.00 | 0.00 | 0.00 | 95 | 1009.1 |
| 20260509122253 | 76 | 9 | 0.0 | 0.0 | 0.00 | 0.00 | 0.00 | 95 | 1009.0 |
| 20260509122006 | 76 | 9 | 0.0 | 0.0 | 0.00 | 0.00 | 0.00 | 95 | 1008.8 |
| 20260509121200 | 76 | 9 | 0.0 | 0.0 | 0.00 | 0.00 | 0.00 | 95 | 1008.5 |
| 20260509120654 | 76 | 9 | 0.0 | 0.0 | 0.00 | 0.00 | 0.00 | 95 | 1008.4 |
| 20260509120156 | 76 | 9 | 0.0 | 0.0 | 0.00 | 0.00 | 0.00 | 95 | 1008.5 |
| 20260509115911 | 76 | 9 | 0.0 | 0.0 | 0.00 | 0.00 | 0.00 | 95 | 1008.6 |
| 20260509115133 | 76 | 9 | 0.0 | 0.0 | 0.00 | 0.00 | 0.00 | 95 | 1008.5 |
| 20260509114625 | 76 | 9 | 0.0 | 0.0 | 0.00 | 0.00 | 0.00 | 95 | 1008.5 |
| 20260509114052 | 76 | 9 | 0.0 | 0.0 | 0.00 | 0.00 | 0.00 | 95 | 1008.7 |
| 20260509113547 | 76 | 9 | 0.0 | 0.0 | 0.00 | 0.00 | 0.00 | 95 | 1008.6 |
| 20260509113042 | 76 | 9 | 0.0 | 0.0 | 0.00 | 0.00 | 0.00 | 95 | 1008.5 |
| 20260509112538 | 76 | 9 | 0.0 | 0.0 | 0.00 | 0.00 | 0.00 | 95 | 1008.4 |
| 20260509112040 | 76 | 9 | 0.0 | 0.9 | 0.00 | 0.00 | 0.00 | 95 | 1008.5 |
| 20260509111535 | 76 | 9 | 0.0 | 0.9 | 0.00 | 0.00 | 0.00 | 95 | 1008.4 |
| 20260509111028 | 76 | 9 | 0.0 | 0.0 | 0.00 | 0.00 | 0.00 | 95 | 1008.3 |
| 20260509110452 | 76 | 9 | 0.0 | 0.0 | 0.00 | 0.00 | 0.00 | 95 | 1008.4 |
| 20260509105952 | 76 | 9 | 0.0 | 0.0 | 0.00 | 0.00 | 0.00 | 95 | 1008.3 |
| 20260509105716 | 76 | 9 | 0.0 | 0.0 | 0.00 | 0.00 | 0.00 | 94 | 1008.0 |
| 20260509104952 | 76 | 9 | 0.0 | 0.0 | 0.00 | 0.00 | 0.00 | 94 | 1007.9 |
| 20260509104452 | 76 | 9 | 0.0 | 0.0 | 0.00 | 0.00 | 0.00 | 94 | 1007.9 |
| 20260509103942 | 76 | 9 | 0.0 | 0.0 | 0.00 | 0.00 | 0.00 | 94 | 1008.1 |
| 20260509103923 | 76 | 9 | 0.0 | 0.0 | 0.00 | 0.00 | 0.00 | 94 | 1008.1 |